Theta_e
306 305 305 305 305 304 304 304 304 304 303 303 303 303 302 302 302 302 302 302 302 302 302 302 302 302 302 301 302 302 302 303 303 303 303 303 303 302 301 301 301 301 301 301 301 301 301 301 301 300 300 300 299 299 298 298 298 298 298 297 297 296 295 295 295 295 295 294 294
306 306 306 306 306 305 304 304 304 304 304 303 304 303 303 303 302 302 302 302 302 302 302 302 302 301 301 301 302 302 302 302 302 303 303 303 302 302 301 301 301 301 301 301 301 301 301 301 300 300 300 300 299 299 298 298 298 297 297 297 297 297 296 296 296 295 295 295 294
306 306 306 306 305 305 304 304 304 304 303 303 304 304 303 303 303 303 302 302 302 302 302 302 302 301 301 301 302 302 302 302 302 302 303 303 302 302 302 302 301 301 301 301 301 301 301 301 301 301 300 300 299 299 298 298 298 297 297 297 297 297 297 296 296 296 296 296 294
307 306 306 306 305 305 305 305 304 304 304 304 304 304 304 304 303 303 303 302 302 302 302 302 302 301 301 301 301 302 302 303 302 302 302 302 302 302 302 301 301 301 301 301 301 301 301 301 301 301 300 299 299 298 299 299 298 298 298 297 297 297 297 297 296 296 296 296 295
307 307 307 306 306 306 305 305 305 305 305 305 305 304 304 304 304 303 303 302 303 302 302 302 302 302 302 301 301 301 302 302 303 303 302 302 302 302 302 301 302 301 301 301 300 300 300 300 301 301 300 299 299 299 298 298 298 298 297 297 297 297 297 296 296 297 296 296 295
307 307 307 307 306 306 306 306 305 305 306 305 305 305 305 305 304 304 303 303 303 303 302 302 302 302 302 301 301 301 301 301 303 302 302 301 301 302 301 301 302 302 301 301 301 300 300 301 301 301 300 299 299 298 298 297 298 297 297 297 297 297 297 296 296 296 296 295 295
307 307 307 307 306 306 306 306 306 306 306 306 305 305 305 305 305 304 304 304 304 303 303 304 303 303 302 301 301 301 301 302 302 302 301 301 301 301 301 302 301 302 301 301 301 300 300 301 301 301 300 300 299 298 297 298 298 297 297 297 297 297 296 295 296 296 295 295 294
308 308 307 307 307 307 306 306 306 306 306 306 305 305 305 305 305 304 304 304 304 304 304 304 303 303 302 302 302 301 301 301 301 301 301 301 301 301 301 301 302 301 301 301 301 301 300 301 301 300 300 300 299 298 298 297 297 297 297 296 296 296 296 295 295 295 295 294 294
308 308 307 307 307 307 306 306 306 305 306 305 305 305 305 305 304 304 304 304 304 304 304 304 303 303 302 302 302 301 301 301 301 301 301 301 301 301 301 301 301 301 301 301 301 301 300 301 300 300 300 299 299 299 298 297 297 297 296 296 296 296 295 295 294 294 294 294 294
307 307 307 307 307 307 307 306 306 306 306 305 305 305 306 306 305 305 305 305 305 305 304 304 303 303 302 302 302 302 301 301 301 301 301 301 301 301 301 301 301 301 301 301 301 301 301 300 300 300 299 299 298 298 297 297 297 296 296 297 296 295 294 294 294 293 294 294 293
307 307 307 307 307 307 307 306 306 306 306 306 305 305 306 306 306 306 306 305 305 304 304 304 304 303 303 303 302 302 301 301 301 301 301 301 301 301 301 301 301 301 301 301 301 301 301 301 300 299 298 298 298 297 297 297 297 296 296 296 296 295 294 294 294 294 294 294 293
307 307 307 307 307 307 307 307 307 307 306 306 306 306 306 306 306 306 306 305 304 304 304 304 304 304 304 304 303 303 302 301 301 301 301 301 301 301 301 301 301 301 301 301 301 301 301 300 300 299 298 297 298 298 298 297 297 296 296 295 295 295 294 294 294 294 294 293 293
307 307 307 307 307 307 307 307 307 307 306 306 306 306 306 306 306 306 306 305 305 305 305 304 304 304 304 304 304 303 303 302 302 301 301 301 301 301 301 301 301 301 301 301 301 301 301 300 299 299 298 297 298 298 298 297 297 296 296 295 295 295 295 294 294 294 294 293 293
307 307 307 307 307 307 307 307 307 307 307 306 306 307 306 306 306 306 306 305 305 305 305 305 305 305 305 304 304 303 303 302 302 301 301 301 301 301 301 301 301 301 301 301 301 301 301 300 299 299 298 297 297 298 297 297 297 297 296 296 295 295 295 294 294 294 293 292 293
307 306 307 307 307 307 307 307 307 307 307 307 307 307 307 307 307 307 306 306 305 305 305 305 305 305 305 304 304 303 303 302 302 301 301 301 301 301 301 301 301 301 301 301 301 301 300 300 299 299 298 298 297 297 297 297 297 297 297 296 296 295 295 294 294 294 293 293 292
306 306 307 306 306 307 307 307 308 307 307 307 307 307 307 307 307 307 307 306 305 305 305 305 305 305 304 304 304 303 303 302 302 301 301 301 301 301 301 301 301 301 301 301 301 301 300 300 300 299 299 298 298 297 297 297 297 297 297 297 296 296 295 295 294 294 293 293 293
306 306 307 306 306 306 307 307 308 307 307 307 307 307 307 307 307 307 307 306 306 305 305 304 305 304 304 304 304 303 303 302 302 302 301 301 301 301 301 301 301 301 301 300 300 300 300 300 300 299 299 299 298 298 297 297 297 297 297 296 296 296 296 296 295 294 294 293 293
306 306 306 306 306 307 307 307 307 307 307 307 307 307 307 307 307 307 307 306 306 305 304 304 304 304 304 303 303 304 304 303 302 302 302 301 301 301 301 301 301 301 301 301 300 300 300 300 299 299 299 299 298 298 297 297 297 297 297 297 296 296 296 296 296 295 294 294 294
306 306 306 306 306 307 307 307 307 307 307 307 307 307 307 306 306 306 306 306 306 305 304 304 304 303 303 303 303 303 304 303 302 302 302 301 301 301 301 301 301 301 301 301 301 300 300 300 299 299 299 299 298 298 298 297 297 297 297 297 296 296 296 296 296 295 295 294 294
306 306 306 306 306 306 307 307 307 307 306 306 306 306 306 306 306 305 305 305 305 305 304 304 304 303 303 303 303 303 303 303 302 302 302 302 301 301 301 301 301 301 301 301 301 300 300 300 299 299 299 298 298 298 298 297 297 297 297 297 296 296 296 296 296 295 295 294 294
306 306 306 306 306 306 306 307 307 306 306 306 306 306 306 305 305 305 305 305 305 305 304 304 303 303 303 302 302 302 303 303 303 302 302 302 301 301 301 301 301 301 301 301 301 300 300 300 299 299 299 298 298 298 297 297 297 297 296 297 296 296 296 295 295 295 295 294 294
306 306 306 306 306 307 307 307 307 306 306 305 305 305 305 305 305 305 305 305 305 304 304 304 303 303 303 303 302 302 302 303 302 302 302 302 301 301 302 301 301 301 300 300 300 300 300 299 299 299 299 298 298 298 297 297 297 296 296 296 295 295 295 295 295 294 294 294 294
305 306 306 306 306 306 306 306 306 306 306 305 305 305 305 305 305 305 304 304 304 304 304 304 303 303 303 303 303 302 302 302 301 301 301 301 301 301 301 301 301 300 300 300 300 300 299 299 299 298 298 298 298 297 297 297 297 297 296 295 295 294 294 294 294 294 293 293 293
305 305 305 306 306 306 306 306 305 305 305 305 304 304 304 304 304 304 304 304 304 304 304 304 304 303 303 302 302 302 301 301 300 300 300 301 301 300 300 301 300 300 300 300 301 300 300 300 299 298 298 298 298 298 297 297 297 297 296 295 294 294 293 293 293 293 293 292 292
303 303 304 305 305 305 305 305 305 305 305 304 304 304 304 304 304 304 304 303 303 303 303 303 303 303 302 302 302 302 301 301 300 300 299 299 300 300 300 300 301 300 301 301 302 302 302 302 300 299 299 298 298 298 297 297 296 296 296 295 294 294 293 292 292 292 291 291 291
302 302 303 303 304 304 304 304 304 305 305 304 304 304 304 304 304 304 304 303 303 303 303 303 303 303 303 302 302 301 301 301 301 300 300 299 299 299 299 300 300 301 301 302 303 304 304 304 303 301 299 298 297 297 297 297 296 296 295 294 294 293 292 291 291 290 290 290 290
300 301 302 302 302 303 303 304 304 304 304 304 304 303 303 303 304 303 303 303 303 303 303 303 303 303 303 302 301 301 300 301 300 300 300 299 299 298 299 300 300 300 301 302 303 305 305 305 305 303 300 297 297 296 296 296 295 294 293 293 293 292 292 291 291 291 290 290 289
299 300 300 301 301 302 302 303 303 303 304 304 303 303 303 303 303 303 303 303 303 303 303 303 302 303 303 302 301 300 300 300 300 300 299 299 299 298 298 299 299 300 301 303 304 305 306 306 305 304 302 298 296 295 294 294 294 294 293 293 293 292 292 292 292 291 290 289 289
298 298 299 299 300 300 301 301 302 302 303 303 303 303 303 303 303 303 303 303 303 303 303 303 303 302 302 302 301 301 300 300 300 299 299 298 298 298 298 298 298 299 301 304 305 305 305 305 305 305 303 301 297 295 295 295 294 294 294 293 293 292 292 292 291 291 290 289 288
297 297 298 298 298 299 299 300 301 301 302 302 302 302 302 302 302 302 302 302 302 302 302 303 302 302 301 301 301 300 300 299 299 299 298 298 297 297 298 298 298 299 301 304 305 305 305 305 305 305 304 302 298 295 294 294 294 294 293 293 292 291 291 291 290 290 289 289 288
296 296 297 297 297 298 298 299 299 299 300 301 301 301 301 302 302 302 302 302 302 302 302 302 301 301 300 300 300 300 299 299 299 298 298 297 298 297 297 297 297 298 301 305 305 305 305 305 305 304 303 302 298 295 293 292 292 293 293 292 291 290 290 290 289 289 289 289 288
295 296 296 296 297 297 297 297 297 298 298 299 299 300 300 301 301 301 301 301 301 301 301 300 300 300 300 299 299 299 299 299 298 298 298 297 297 297 296 297 296 297 300 304 305 305 305 305 304 304 303 301 297 293 290 291 291 291 291 291 290 290 290 290 289 289 289 288 288
295 295 295 295 296 296 296 296 297 297 297 298 298 299 299 299 300 300 300 300 300 300 299 299 299 299 299 298 298 298 298 298 298 298 297 297 296 296 296 296 296 298 301 304 305 305 305 304 304 303 302 300 296 292 290 290 291 291 290 290 289 289 289 289 289 289 289 288 288
294 294 294 294 294 295 295 295 295 295 296 296 296 297 297 297 298 298 298 299 299 298 299 299 299 298 298 298 298 297 297 298 297 297 296 296 295 296 295 295 295 298 302 304 304 304 304 304 303 302 301 299 294 291 290 290 290 290 290 289 289 289 289 289 288 288 288 288 288
293 293 293 294 294 294 294 294 294 294 294 295 295 295 295 295 296 297 297 298 298 298 297 297 297 297 297 297 296 296 296 296 295 295 295 295 295 295 295 293 293 297 302 303 304 304 304 303 302 301 300 297 293 290 289 289 289 289 289 289 288 288 288 288 288 288 288 288 288
292 292 293 293 293 293 293 293 293 293 293 293 294 294 294 294 295 295 296 297 297 296 296 296 296 296 296 296 296 295 296 295 294 294 294 295 294 294 293 291 292 296 301 303 303 303 303 302 302 301 298 294 291 289 289 289 289 288 288 288 288 288 288 288 288 288 288 288 287
292 292 292 292 292 292 292 292 292 292 293 292 293 292 293 293 294 294 295 296 295 295 294 295 295 295 295 294 294 294 294 294 294 294 294 294 294 293 291 290 291 295 300 302 302 303 302 302 301 299 296 292 290 289 289 289 289 288 288 288 288 288 287 288 287 287 287 287 287
291 291 292 292 291 291 291 292 291 292 292 292 292 292 292 293 293 293 294 295 294 293 293 294 294 293 293 293 293 292 293 293 293 293 293 292 292 291 290 290 291 294 298 301 301 302 302 301 301 298 295 290 289 289 289 289 288 288 288 288 288 287 287 287 287 286 286 287 288
291 291 291 291 290 290 290 291 291 291 291 291 291 291 292 292 292 293 293 293 293 293 293 293 292 292 292 292 292 291 291 292 293 293 292 291 290 291 291 290 290 293 296 300 301 301 301 301 300 298 294 291 289 288 289 288 288 287 287 287 287 287 286 286 286 286 286 287 291
290 290 290 290 289 289 290 290 290 290 290 290 290 290 290 291 292 292 292 292 292 292 292 291 290 290 291 292 291 290 290 290 290 291 291 290 290 291 292 290 291 292 295 299 300 301 301 301 300 297 294 290 289 288 288 288 287 287 287 287 287 287 286 286 286 286 286 287 290
288 288 289 289 289 289 289 289 289 289 289 289 289 289 290 290 290 290 290 290 290 290 290 289 289 289 290 291 290 289 288 288 288 288 289 289 290 291 292 290 290 292 294 297 299 300 300 300 299 296 294 290 289 288 288 288 287 287 286 287 287 287 286 286 285 285 286 286 287
Wind_Speed
13 12 12 11 11 10 10 9 9 8 8 8 9 9 9 9 9 9 8 8 8 8 8 8 8 8 8 10 12 13 13 13 13 13 13 13 13 12 12 11 11 11 10 10 10 10 10 10 8 7 6 6 6 7 6 6 7 8 8 8 7 7 8 9 9 9 9 9 7
15 14 13 12 11 10 9 9 8 8 8 8 8 9 9 9 9 9 9 9 8 8 8 7 8 8 9 12 13 13 13 13 14 13 13 13 13 13 12 11 11 11 11 11 11 10 9 10 9 7 6 6 6 7 7 7 7 8 9 9 8 7 7 8 9 9 9 9 7
15 14 13 13 12 11 10 9 9 10 10 9 8 8 8 8 8 8 9 9 8 8 7 7 8 9 11 12 12 12 13 13 14 13 13 12 13 13 12 11 12 12 12 12 11 10 10 10 9 8 7 6 7 7 7 7 7 8 9 10 7 6 6 7 8 8 7 7 7
15 15 14 14 15 14 13 11 11 12 11 9 8 8 8 8 8 8 8 8 8 8 8 8 8 9 11 12 12 12 12 13 14 14 13 12 12 13 13 12 12 12 12 12 12 11 11 11 9 7 7 8 8 8 8 7 8 8 7 8 6 6 7 6 7 6 6 6 7
16 15 15 14 16 16 14 12 13 12 11 9 8 8 8 8 7 7 7 8 9 9 9 9 9 9 10 11 13 13 13 13 14 13 12 12 13 13 13 13 13 12 12 12 12 12 11 11 8 7 7 7 7 7 7 7 8 8 6 6 6 6 6 6 6 6 6 6 6
16 16 15 14 15 15 13 12 13 13 11 9 10 10 9 8 8 8 9 9 10 10 11 11 10 10 10 11 13 13 13 13 13 13 12 13 12 12 13 13 13 13 12 12 12 12 12 11 8 7 6 6 7 7 7 9 8 8 7 6 6 6 6 7 6 6 6 6 7
15 16 16 15 15 14 13 12 12 12 11 10 12 12 12 11 10 11 11 10 9 9 10 10 10 11 11 12 12 13 13 12 12 13 13 12 12 13 13 13 13 13 13 12 12 12 11 11 8 7 7 7 6 7 8 9 9 9 8 8 6 6 6 7 6 6 7 9 9
15 16 16 15 15 15 14 14 12 12 11 10 12 14 14 13 12 12 12 10 9 9 9 9 11 12 12 13 13 13 13 13 13 13 13 12 13 13 13 13 13 13 13 13 13 12 11 10 8 7 7 7 6 7 9 10 10 10 10 9 7 6 6 6 6 7 8 10 11
13 14 15 14 14 14 14 14 13 13 12 12 13 14 14 13 13 12 11 10 9 9 9 9 11 12 13 13 13 13 13 13 13 13 13 13 13 14 13 13 13 13 13 13 13 13 13 10 8 8 7 7 7 8 9 11 12 12 11 10 8 7 7 7 7 8 9 10 11
13 14 14 13 14 14 14 13 13 13 13 13 14 14 13 13 13 12 11 9 9 9 10 10 11 12 13 13 13 13 13 12 13 13 13 13 14 14 14 13 14 14 13 13 13 13 13 10 9 9 8 8 9 9 10 12 13 12 11 8 8 8 8 7 8 9 9 10 11
14 14 13 13 13 13 13 13 12 13 13 12 13 13 13 13 13 12 11 9 9 10 11 11 12 12 13 13 13 13 12 12 12 12 13 13 14 14 14 14 14 14 14 14 13 12 12 11 11 11 10 9 9 10 11 12 13 13 12 9 9 10 10 9 9 10 10 10 11
13 13 13 13 13 13 12 12 12 12 12 12 12 13 13 12 13 12 11 10 11 11 12 11 12 13 13 12 12 12 12 12 12 13 13 14 14 14 14 14 14 15 15 14 13 12 12 12 12 12 12 11 10 10 11 13 13 13 12 11 11 11 11 12 11 10 9 10 10
13 13 13 13 13 13 13 12 11 11 12 12 12 12 12 12 12 12 12 12 12 12 11 11 12 13 12 12 12 12 12 12 13 13 13 14 14 14 14 14 15 15 15 14 13 13 12 13 14 14 14 13 11 11 12 14 14 14 13 13 12 12 12 13 12 11 10 10 11
13 13 13 13 13 13 13 13 11 11 12 12 12 12 12 11 12 12 12 13 13 12 11 11 11 12 12 12 12 12 12 12 13 13 13 13 14 14 14 14 15 15 14 14 14 14 14 14 15 15 14 14 13 12 13 14 14 14 14 14 14 14 13 13 12 12 11 11 12
13 13 13 13 13 13 13 13 11 11 12 12 12 12 11 11 12 12 12 13 12 12 11 11 11 11 12 13 13 13 13 13 13 14 14 14 14 14 15 14 15 15 15 14 14 15 15 15 15 15 15 15 14 14 13 14 14 14 14 14 15 14 13 13 13 12 12 13 12
14 14 14 14 14 14 13 13 11 11 11 12 12 11 11 11 11 12 12 13 12 11 11 11 11 11 11 12 13 13 13 13 14 14 14 14 14 15 15 15 15 16 16 15 15 15 15 15 15 15 15 15 14 14 14 14 14 14 14 14 14 14 13 13 13 13 13 13 13
14 14 14 14 15 15 14 14 12 11 11 12 12 12 11 11 11 11 12 13 12 11 12 12 12 11 11 12 12 13 13 13 14 14 15 15 15 15 16 16 16 16 16 16 16 16 15 15 14 14 15 15 14 14 14 14 13 14 14 14 13 13 13 13 13 13 13 13 13
14 14 14 15 16 16 16 15 13 13 12 12 12 12 11 11 11 12 12 13 13 13 13 13 12 12 12 13 13 12 13 14 14 15 15 15 15 16 16 16 16 16 16 16 16 16 16 15 14 14 14 14 14 13 13 13 13 13 13 13 13 13 13 13 13 13 13 13 13
15 15 15 15 16 17 17 16 15 14 13 13 12 12 12 12 12 12 12 13 13 14 14 14 13 12 13 14 14 13 13 14 15 15 15 15 15 15 16 16 16 16 16 16 16 16 16 15 15 14 14 13 13 13 12 12 12 12 12 12 12 12 12 12 12 12 12 13 13
15 15 15 16 16 16 17 16 16 15 13 12 13 13 13 13 13 13 13 14 14 14 14 14 14 13 14 14 14 14 14 13 15 16 16 15 15 16 16 16 16 16 16 16 16 16 15 15 15 14 14 14 14 13 13 12 12 12 12 12 12 12 12 12 12 11 12 12 12
15 15 15 15 16 16 16 16 16 15 14 13 13 13 14 13 13 14 14 14 14 14 14 15 15 15 15 15 15 15 14 13 14 15 15 15 16 16 16 16 16 15 15 15 15 15 15 15 15 15 14 14 14 14 13 13 12 12 12 11 11 11 11 11 11 11 11 11 11
14 15 15 15 15 15 15 15 15 14 14 13 14 14 14 14 14 14 14 13 13 14 15 15 15 16 16 16 16 16 15 12 13 14 15 15 15 16 15 15 15 15 15 16 15 16 15 15 15 15 15 14 14 14 14 13 13 12 12 11 11 11 11 11 10 10 10 11 11
13 13 13 13 13 14 14 14 14 14 14 14 14 14 14 14 14 14 13 13 13 14 15 15 15 15 16 16 16 16 15 13 13 14 14 14 15 15 15 14 15 15 16 15 15 15 15 15 15 15 15 14 15 15 15 14 13 13 12 12 11 11 11 10 10 10 10 10 10
10 10 10 10 11 12 13 13 14 14 15 15 15 14 14 14 14 13 13 13 14 14 15 14 14 14 15 15 15 15 15 15 14 14 14 14 14 14 15 14 15 15 15 14 14 15 15 14 14 14 14 14 14 14 14 14 13 13 12 12 11 11 10 10 10 10 9 10 10
9 9 9 10 10 11 12 13 14 15 15 15 15 15 14 14 14 14 14 14 15 15 15 14 14 13 13 14 14 15 15 16 15 15 15 15 14 14 14 14 14 14 13 13 16 18 18 16 14 14 13 13 13 13 13 13 13 12 12 12 12 11 10 10 10 10 9 10 9
8 8 9 10 10 11 12 13 14 15 15 15 15 15 15 15 14 15 15 15 15 15 15 15 14 13 13 13 14 14 15 15 15 16 16 15 15 15 14 13 13 12 12 14 18 21 21 20 18 16 13 12 12 12 11 11 12 12 12 11 11 11 11 10 10 9 9 9 9
7 8 9 9 9 10 12 12 13 13 14 14 15 15 15 15 15 15 16 16 16 16 15 14 14 13 13 13 14 15 15 15 15 15 16 16 16 15 15 14 13 12 12 16 20 22 22 22 21 18 15 11 11 11 11 10 11 11 11 11 11 11 11 11 11 10 9 8 8
7 7 8 8 9 10 11 11 11 12 13 14 14 14 14 15 15 16 16 17 16 15 14 14 13 12 11 11 14 15 16 15 15 14 15 15 15 16 15 14 12 12 13 17 20 21 22 22 21 20 17 13 10 10 10 10 10 10 10 10 10 11 11 11 10 10 9 8 8
6 6 7 8 9 9 9 9 11 12 12 12 13 12 13 13 14 15 16 16 16 15 14 12 11 10 10 12 14 15 16 15 14 13 13 14 14 15 14 14 12 12 14 18 19 20 21 21 20 20 18 15 11 8 8 9 9 9 9 9 9 10 10 10 9 9 9 9 8
5 5 6 7 8 8 8 9 9 10 10 10 10 11 11 12 13 14 15 16 16 15 13 11 11 11 13 14 14 14 14 14 13 13 13 14 14 14 14 13 12 12 13 17 19 20 20 20 19 19 18 17 12 9 8 8 8 8 8 8 9 9 10 10 10 10 9 9 9
5 5 6 7 7 7 8 8 8 8 8 8 9 10 11 12 13 13 14 14 13 12 11 10 12 13 14 14 13 13 13 13 13 13 13 14 15 14 13 13 11 11 13 17 18 19 19 19 19 18 17 16 12 9 7 8 8 8 8 8 9 10 10 10 10 10 10 10 10
5 5 5 6 6 7 7 7 7 7 7 8 8 9 10 11 11 11 10 10 9 9 9 10 12 13 13 12 12 12 12 13 13 13 13 13 13 12 11 11 11 11 13 17 18 19 19 19 18 18 17 15 12 9 8 8 8 8 8 9 9 10 10 9 9 10 11 11 11
4 4 5 5 5 6 5 5 6 6 6 7 8 8 9 9 8 7 7 7 7 8 9 10 12 12 12 11 11 11 11 12 12 12 12 12 12 11 11 10 9 10 13 17 19 19 19 19 18 18 17 15 11 9 8 8 7 7 7 7 8 9 10 10 10 10 11 11 11
4 4 4 4 4 4 4 4 4 5 5 6 6 7 7 6 6 6 6 6 6 7 7 8 9 9 9 9 8 9 9 9 9 10 10 10 10 10 10 9 7 9 14 17 19 19 20 19 19 18 17 15 10 8 8 8 7 7 7 8 8 8 9 10 10 10 11 11 10
4 4 3 3 3 2 2 2 3 3 4 5 5 5 5 4 5 5 5 5 5 5 5 5 6 6 6 6 6 7 7 8 8 8 8 9 9 10 10 8 6 9 14 17 18 19 20 19 19 19 17 14 9 7 7 8 8 8 8 9 8 8 9 9 9 9 10 11 10
6 5 4 3 2 1 1 1 2 3 3 4 4 4 3 3 3 3 3 3 3 3 4 4 4 5 5 5 5 5 6 7 7 7 7 8 9 9 9 7 7 10 14 17 18 19 19 20 19 19 16 12 8 7 7 7 7 8 8 9 9 9 9 9 8 9 9 10 10
9 8 6 4 3 2 1 0 1 2 3 3 3 3 3 3 2 2 2 3 3 3 3 3 3 4 4 4 4 3 4 5 5 6 7 7 8 8 8 7 7 10 13 17 18 18 19 20 20 18 15 10 7 7 7 7 6 7 8 8 8 8 8 8 8 8 9 9 10
12 10 8 6 5 3 2 1 0 1 2 2 1 2 2 2 2 1 2 3 3 3 3 3 3 3 3 4 3 3 3 4 5 6 6 7 7 7 8 7 7 8 11 15 17 18 19 19 20 18 15 10 8 7 7 6 6 7 7 7 7 7 7 6 6 7 8 9 11
13 12 10 8 6 5 4 3 2 1 1 1 1 2 2 2 1 1 1 2 2 3 3 3 3 3 4 5 5 5 5 5 6 6 6 6 7 8 8 8 7 7 10 14 17 18 19 20 19 18 15 10 8 7 7 7 7 7 7 7 7 6 6 6 5 6 7 9 12
12 12 11 9 8 7 6 6 5 4 3 3 3 3 3 2 2 3 3 3 3 3 3 4 4 5 6 7 7 6 6 6 6 6 7 7 8 9 9 8 8 8 10 14 17 18 19 20 20 18 15 10 8 7 6 7 7 8 7 7 7 6 6 5 5 5 6 7 10
11 11 11 11 10 9 9 8 7 6 5 5 4 4 3 3 3 4 4 4 4 4 4 5 6 6 7 7 7 7 7 7 6 6 7 8 8 9 9 8 8 8 9 12 16 18 19 20 20 18 15 10 7 6 6 7 8 8 8 8 7 7 6 5 5 5 6 6 6
Wind_Direction
191 191 191 191 191 192 193 195 194 192 190 186 185 184 184 184 186 188 188 187 188 189 188 188 188 186 183 180 182 185 187 189 189 190 191 193 195 195 196 196 194 192 190 188 184 183 184 185 184 185 188 190 190 191 190 188 185 186 188 189 190 189 188 188 192 192 191 190 189
193 193 192 191 191 192 192 193 193 193 192 190 186 184 183 183 186 187 188 189 189 187 186 187 185 182 180 181 182 184 185 187 188 189 191 192 193 193 193 194 193 191 189 186 184 183 185 185 184 185 187 189 189 191 191 189 184 185 188 190 189 188 188 191 193 193 191 190 188
194 193 192 192 191 191 192 193 193 193 192 191 187 184 183 184 186 187 188 190 188 185 183 185 184 182 180 180 181 183 184 186 186 188 190 192 192 192 192 192 191 190 189 186 185 185 185 184 185 186 187 188 188 190 191 189 184 185 188 191 189 188 190 194 194 192 190 191 188
195 194 193 194 193 193 192 192 191 191 190 189 186 184 184 185 186 187 187 186 185 185 185 185 184 182 181 179 181 182 184 185 185 186 189 191 191 191 191 190 190 189 189 187 186 185 184 183 185 187 188 187 188 190 190 187 185 186 189 191 188 188 191 194 192 190 190 192 190
197 197 196 196 195 195 194 192 190 189 189 186 185 185 186 186 186 185 184 183 187 188 187 183 182 181 181 179 180 181 183 184 185 186 188 190 190 190 190 189 189 189 188 187 186 185 183 182 185 188 189 187 189 190 189 182 183 186 189 190 190 190 190 192 190 190 190 191 191
199 199 199 198 197 196 195 194 191 189 188 185 185 187 187 187 185 185 184 186 188 186 183 179 180 179 179 178 179 180 182 184 185 186 187 189 190 190 189 189 189 188 187 187 186 184 182 182 185 188 189 187 190 189 185 179 181 184 188 191 193 192 190 191 189 188 188 189 189
200 200 200 199 198 197 196 194 192 189 187 186 188 188 189 187 185 185 185 184 183 181 180 179 180 179 178 179 180 181 182 184 185 186 186 188 189 189 189 190 188 187 186 187 186 185 184 183 185 187 188 187 188 187 185 180 182 184 188 192 194 192 189 190 189 187 186 188 188
202 201 201 200 199 197 196 194 191 189 188 189 191 191 189 186 185 184 183 180 180 181 181 180 180 179 178 178 180 181 182 183 185 186 186 187 188 189 189 189 188 187 187 186 186 186 186 185 186 187 187 186 187 187 185 182 182 185 188 192 193 192 190 189 187 186 186 187 187
203 203 202 201 200 198 196 194 192 191 191 192 193 191 189 185 184 182 182 182 182 181 179 179 179 178 178 178 180 181 182 182 184 185 186 186 187 188 189 188 188 187 187 186 187 186 186 186 188 188 188 187 187 187 185 182 182 185 189 191 191 191 191 189 186 185 186 186 187
203 202 202 202 201 199 197 195 194 193 192 193 193 191 189 186 184 184 183 183 181 179 179 180 178 177 178 180 181 181 182 182 183 184 185 186 187 188 188 189 188 188 187 187 187 187 187 188 190 190 189 188 187 185 184 183 184 186 188 190 189 189 189 190 186 185 185 186 188
202 201 200 201 200 198 196 194 195 195 194 193 192 191 189 188 187 186 184 181 179 182 183 181 177 177 179 181 182 182 181 181 182 184 185 187 188 188 189 189 188 188 187 187 186 187 188 190 191 190 190 188 185 185 185 185 185 186 188 189 187 187 188 190 188 187 187 187 188
201 200 200 200 198 197 195 194 196 196 195 194 192 191 190 190 188 186 183 180 182 185 185 181 178 179 181 182 183 182 181 181 182 183 185 187 188 188 189 189 189 188 187 186 185 187 189 192 192 190 189 188 187 186 187 186 187 187 188 188 186 187 189 191 189 188 188 186 186
200 198 198 198 197 196 196 196 196 196 195 194 192 191 191 191 188 185 183 183 185 186 186 182 180 181 182 183 183 182 181 181 182 184 186 187 188 188 189 189 189 189 188 187 186 188 190 193 192 190 189 188 189 189 188 187 188 188 188 188 188 189 190 191 189 188 186 184 187
198 197 196 196 195 195 196 197 197 196 196 195 193 192 190 190 188 186 185 186 187 186 185 183 183 184 184 184 183 182 182 182 182 184 186 187 188 188 189 190 189 189 189 188 188 189 191 192 192 191 189 189 190 189 188 188 189 189 189 188 190 191 191 190 188 186 185 185 188
198 196 195 193 194 195 196 197 197 197 196 196 194 192 189 189 188 187 187 188 188 186 184 184 185 186 186 184 183 183 182 182 183 185 186 188 188 189 189 190 190 190 190 189 190 191 192 193 192 191 190 190 191 190 189 189 191 191 191 191 191 191 190 188 186 186 186 187 188
198 196 194 192 193 195 196 197 198 197 196 196 194 191 189 188 188 188 188 189 187 186 185 186 186 186 185 184 183 183 182 183 184 186 187 189 189 190 190 190 190 191 191 190 191 192 194 193 193 192 191 191 191 190 190 190 191 193 193 193 192 191 190 188 186 187 188 188 188
199 196 193 191 193 194 196 197 197 197 196 196 193 191 190 188 188 188 189 188 187 187 187 188 186 184 184 184 184 183 183 185 186 188 189 190 190 190 191 192 192 192 192 191 192 193 194 194 193 192 192 192 191 191 190 190 191 193 194 194 193 192 190 188 187 187 188 189 190
199 197 194 192 193 194 196 197 197 197 196 195 193 192 190 189 187 188 189 189 187 187 187 187 186 184 183 184 185 185 186 187 189 190 191 191 191 191 192 193 192 192 192 192 193 193 193 193 192 192 191 192 192 191 191 190 192 193 193 193 193 192 191 190 189 188 189 190 191
200 197 195 194 194 195 195 196 196 196 195 194 193 192 191 190 188 188 188 189 189 187 186 186 186 185 184 185 186 187 188 189 190 191 192 192 191 192 193 193 193 193 193 194 194 194 193 192 191 190 190 191 191 192 191 190 191 192 192 192 193 192 192 192 190 189 189 190 191
201 199 197 195 195 194 195 196 196 195 195 193 192 192 192 192 189 189 189 190 190 188 186 185 186 186 186 186 187 188 190 191 191 192 192 192 192 193 193 194 193 193 194 195 195 195 193 192 191 190 189 189 190 190 191 191 191 191 191 192 192 193 193 192 191 189 188 189 189
204 202 200 197 195 195 195 196 195 195 194 193 193 193 193 192 191 191 191 190 189 188 187 187 187 187 187 187 188 189 191 192 191 192 193 193 193 194 194 193 193 194 194 195 195 194 193 192 191 190 189 188 189 189 190 190 190 190 190 191 191 191 191 191 190 188 187 187 187
207 205 202 199 198 197 196 196 195 194 194 193 193 193 193 193 194 193 192 189 187 188 189 190 190 189 188 188 189 190 191 192 192 193 193 193 195 195 194 193 193 194 195 196 195 194 193 192 191 189 188 188 189 189 189 189 189 189 188 188 189 189 189 189 188 187 185 183 184
212 209 206 203 200 198 197 196 195 195 195 195 194 194 193 194 195 194 191 189 189 190 192 193 192 192 191 190 190 190 190 192 193 193 194 194 194 194 194 193 194 195 196 197 195 193 192 191 191 190 189 189 189 189 189 189 188 187 186 186 185 185 186 187 186 184 182 180 180
218 215 211 208 204 201 199 197 196 196 196 196 195 194 194 194 194 193 192 191 192 193 194 195 195 194 192 191 191 190 190 191 193 194 194 194 194 193 192 193 195 197 198 197 195 193 191 189 189 190 189 189 189 189 189 188 187 186 184 183 182 181 182 183 182 181 179 176 177
226 222 218 214 209 205 201 199 198 198 198 198 195 194 193 193 192 192 193 193 194 195 195 196 195 194 193 192 192 192 192 193 193 194 194 194 193 192 192 193 196 198 199 199 196 194 192 190 189 189 189 189 188 188 188 187 186 185 182 180 178 177 177 178 179 177 175 173 173
230 228 225 220 214 210 207 204 203 201 201 199 196 195 194 193 192 192 193 195 196 196 196 195 195 194 193 193 193 194 194 196 195 194 194 193 193 192 193 194 196 198 199 199 197 195 193 191 190 188 186 186 185 185 185 186 185 182 180 177 174 172 172 174 176 175 172 168 167
231 230 229 225 220 216 213 210 208 206 204 202 200 198 197 194 193 194 195 196 196 196 195 195 195 194 193 193 194 195 196 198 197 196 195 194 193 193 194 195 196 197 198 198 197 195 194 192 190 187 183 181 180 181 181 182 180 177 174 172 171 170 170 171 171 170 167 162 159
232 231 230 229 225 222 219 215 213 211 209 207 204 202 200 197 196 196 197 197 196 195 195 196 196 194 193 194 195 197 197 197 197 196 196 195 194 194 195 196 196 196 196 196 195 194 193 191 189 185 181 177 176 175 174 173 173 171 170 170 170 169 169 169 167 165 161 157 154
238 234 231 230 229 227 224 220 218 216 214 212 210 207 205 202 201 200 199 199 197 196 196 197 195 193 194 196 197 197 197 196 196 195 195 195 196 196 197 197 196 196 194 193 192 192 191 190 187 183 179 175 172 171 171 170 169 169 170 170 169 168 167 166 164 161 158 154 152
247 240 235 232 231 230 228 224 222 220 218 217 214 211 210 208 207 205 204 202 200 199 198 195 193 194 196 197 197 196 196 196 194 193 193 194 196 197 197 196 195 193 191 190 190 190 189 188 185 181 177 171 167 165 166 166 166 166 167 167 165 163 162 160 158 158 156 154 151
254 246 240 236 234 233 231 228 225 222 220 218 215 213 212 212 211 210 208 205 204 202 199 195 195 197 198 197 195 194 194 194 192 191 192 193 195 195 195 193 191 189 189 188 187 186 186 184 181 177 172 166 163 161 160 160 160 162 163 162 160 159 157 155 156 156 156 154 153
261 254 247 242 238 236 233 229 224 220 217 215 215 214 214 214 214 213 211 208 206 203 200 198 199 200 200 198 196 195 194 192 192 192 192 192 192 191 190 188 186 185 185 185 184 183 182 180 177 172 166 160 156 152 151 152 153 154 155 154 155 155 155 155 156 156 157 156 157
274 266 258 250 245 240 235 228 220 215 212 212 213 214 215 216 216 215 213 210 205 202 201 200 200 201 200 198 197 196 195 193 192 191 190 188 186 185 184 184 183 182 182 182 181 180 178 176 171 165 159 153 148 145 144 145 147 148 149 151 152 153 153 153 155 157 158 158 159
289 279 270 260 252 244 234 223 213 206 205 208 211 212 213 215 215 214 213 210 205 203 201 201 201 200 199 197 195 194 194 194 191 189 185 182 179 178 178 181 180 179 179 179 177 176 174 171 165 160 154 148 143 140 141 142 143 145 147 149 151 152 153 154 155 156 157 158 159
316 304 289 277 264 251 232 212 198 194 194 200 207 209 209 208 209 210 210 206 202 201 202 202 200 198 196 195 193 192 191 190 187 183 178 173 172 172 173 173 170 172 174 174 173 171 169 166 161 156 151 144 140 139 141 141 143 145 147 148 151 153 154 154 154 155 156 157 159
341 338 330 319 311 298 252 190 177 180 188 195 199 200 200 199 202 203 201 194 190 191 193 193 191 189 188 189 189 188 186 182 177 173 168 164 164 164 163 160 159 166 169 170 169 167 165 162 158 153 147 140 139 141 143 143 144 145 146 148 153 155 156 156 156 156 157 158 160
344 344 342 338 338 338 343 60 156 178 189 194 193 189 184 181 185 183 173 159 165 172 175 172 174 177 179 178 176 173 169 164 161 158 157 156 156 153 150 146 151 161 165 166 166 165 163 162 158 153 146 138 141 144 145 145 145 145 146 149 153 156 157 156 156 156 157 159 161
345 344 343 343 344 346 352 15 78 180 193 191 176 161 153 151 153 152 145 142 151 157 159 154 157 160 156 147 137 127 124 131 139 142 144 145 144 141 138 137 146 156 161 164 164 164 164 164 160 154 147 142 146 148 148 147 148 148 150 152 154 156 156 155 154 153 155 157 159
349 348 348 350 353 357 4 16 21 32 59 86 79 77 79 88 87 84 89 107 127 137 140 137 134 126 118 111 105 101 101 106 118 125 129 130 130 130 132 135 143 152 160 164 165 166 167 166 161 154 148 144 148 150 148 147 148 150 150 152 153 154 153 150 146 145 146 150 151
353 354 354 356 359 4 9 17 21 27 37 52 55 55 53 53 46 43 45 56 75 93 103 105 101 99 98 101 100 98 95 91 96 104 112 117 123 128 132 137 144 153 161 167 168 170 169 168 160 154 149 145 149 149 148 148 149 150 152 153 154 153 151 146 138 135 134 138 142
359 1 2 4 6 9 14 19 21 26 33 40 43 42 40 41 39 40 44 50 57 65 73 79 81 84 88 93 95 95 93 88 85 90 100 110 120 128 135 140 147 155 164 170 171 172 170 166 159 154 151 148 150 151 150 150 151 153 154 155 154 152 149 143 133 126 124 126 130